Location: Most
(50.5133°N, 13.6207°E)
Time: 21:07:55
(UTC+02:00)

Tiangong - Pass Details

Date: 05 October 2021
Orbit: 382 x 385 km, 41.5° (Epoch: 16 October)

Event Time Altitude Azimuth Distance (km) Brightness Sun altitude
Exits shadow 05:07:04 12° 157° (SSE) 1,308 3.8 -20.5°
Drops below altitude 10° 05:07:28 10° 151° (SSE) 1,397 4.0 -20.4°
Sets 05:10:08 0° 127° (SE) 2,248 5.5 -20.0°
